Temperature
22 21 21 21 23 25 27 28 29 29 29 29 29 28 27 26 25 23 22 21 21 20 20 20 20 20 19 19 19 19 19 19 19 19 19 19 19 19 19 19 19 19 19 18 18 19 18 18 18
22 21 22 23 25 26 27 29 29 29 29 29 28 28 26 25 24 23 22 21 21 20 20 20 20 20 19 19 19 19 19 19 19 19 19 19 19 19 19 18 18 19 19 18 18 18 18 18 18
22 22 23 25 27 28 28 29 29 30 29 29 28 27 26 25 24 22 22 21 21 20 20 20 20 20 20 19 19 19 19 19 19 19 19 18 19 19 18 18 18 18 18 18 18 18 18 18 18
22 24 25 27 28 29 30 30 30 30 29 29 28 26 25 24 23 22 22 22 21 20 20 20 20 20 19 19 19 19 19 19 19 19 19 18 19 19 18 18 18 18 18 18 18 18 18 18 18
24 25 26 27 28 30 30 30 30 30 29 28 27 26 24 23 23 22 22 22 21 20 20 20 20 20 20 19 19 19 19 19 19 19 19 19 18 18 18 18 18 18 18 18 18 18 18 18 18
26 27 27 27 29 30 30 30 30 30 29 28 27 25 24 23 23 23 22 22 21 20 20 20 20 20 20 20 19 19 19 19 19 19 19 18 18 18 18 18 18 18 18 18 18 18 18 18 18
27 28 28 29 29 29 30 30 30 30 29 28 27 26 24 23 23 23 22 22 21 21 20 20 20 20 20 20 19 19 19 19 19 19 19 19 19 19 19 18 18 18 18 18 18 18 18 18 18
28 28 29 29 29 29 30 30 30 30 29 28 28 26 24 24 23 23 22 22 21 21 21 20 20 20 20 20 19 19 19 19 19 19 19 19 19 18 18 19 18 18 18 18 18 18 18 18 19
29 29 29 30 30 30 31 30 30 29 28 28 27 26 25 24 23 23 22 22 21 21 21 20 20 20 20 19 19 19 19 19 19 19 19 18 18 18 18 18 18 18 18 18 18 18 18 18 18
30 29 30 31 31 31 31 31 30 29 28 28 27 25 25 24 24 23 23 22 21 21 21 20 20 20 20 19 19 19 19 19 19 18 18 18 18 18 18 18 18 18 18 18 18 18 18 18 18
31 30 31 32 32 32 31 31 30 29 28 28 27 25 25 24 24 24 23 22 22 21 21 20 20 20 20 19 19 19 19 19 19 18 18 18 18 18 18 18 18 18 18 18 18 18 18 18 18
32 32 32 32 32 32 31 31 30 30 29 28 27 26 25 25 25 24 23 22 22 21 21 21 20 20 20 19 19 19 19 19 19 18 18 18 18 18 18 18 18 18 18 18 18 18 18 18 18
33 33 33 32 32 32 31 31 31 30 29 28 27 26 25 25 25 24 23 22 22 21 21 20 20 20 20 20 19 19 19 19 19 19 19 18 18 18 18 18 18 18 18 18 18 18 18 18 18
33 33 33 32 32 32 32 32 31 30 29 28 27 26 26 25 25 24 23 22 22 21 20 20 20 20 20 19 19 19 19 19 19 19 19 18 18 18 18 18 18 18 18 18 18 18 18 18 18
32 32 32 33 33 33 32 31 31 30 29 28 27 27 26 25 25 24 23 22 22 21 20 20 20 20 19 19 19 19 19 19 19 19 18 18 18 18 18 18 18 18 18 18 18 18 18 18 18
32 31 30 32 33 33 32 30 31 30 29 29 28 27 26 25 25 24 23 22 22 21 20 20 20 20 19 19 19 19 19 19 19 18 18 18 18 18 18 18 18 18 18 18 18 18 18 18 18
31 30 31 32 34 33 32 30 31 30 30 29 28 27 26 26 25 24 23 22 21 21 20 20 20 20 19 19 19 19 19 19 19 18 18 18 18 18 18 18 18 18 18 18 18 18 18 18 18
30 31 31 32 33 33 32 31 31 31 30 29 29 28 27 26 25 24 23 22 21 21 20 20 20 20 19 19 19 19 19 19 19 19 18 18 18 18 18 18 18 18 18 18 18 18 18 18 18
32 32 32 32 33 33 32 32 32 31 31 30 29 28 27 26 25 24 23 23 21 21 20 20 20 20 19 19 19 19 19 19 19 19 18 18 18 18 18 18 18 18 18 18 18 18 18 18 18
32 32 32 33 34 33 32 32 32 32 31 30 29 28 27 27 25 24 23 22 22 21 20 20 20 19 19 19 19 19 19 19 19 19 19 18 18 18 18 18 18 18 18 18 18 18 18 18 18
33 32 32 32 33 33 32 30 30 31 31 30 30 29 28 27 25 24 23 23 22 21 20 20 20 19 19 19 19 19 19 19 19 19 18 18 18 18 18 18 18 18 18 18 18 18 18 18 18
32 33 33 33 32 32 32 30 29 30 31 31 30 29 28 27 26 24 23 23 22 21 20 20 20 19 19 19 19 19 18 18 18 18 18 18 18 18 18 18 18 18 18 18 18 18 18 18 18
33 34 33 33 32 31 31 30 30 30 30 30 31 30 29 27 26 25 24 23 22 21 21 20 19 19 19 19 19 18 18 18 18 18 18 18 18 18 18 17 18 18 17 18 18 18 18 18 18
34 33 32 32 32 30 31 30 29 30 30 31 31 30 29 28 26 25 24 23 22 22 21 20 20 19 19 19 18 18 18 18 18 18 18 18 18 18 17 17 17 17 17 17 17 17 17 18 18
33 31 29 29 29 30 31 31 30 31 32 32 31 30 29 28 27 25 24 23 23 22 21 20 20 19 19 19 18 18 18 18 18 18 18 18 18 17 17 17 17 17 17 17 17 17 17 17 17
33 32 30 28 28 30 30 29 30 32 32 32 31 30 28 27 26 25 24 24 23 22 21 20 20 19 19 19 18 18 18 18 18 18 17 17 17 17 17 17 17 17 17 17 17 17 17 17 17
33 32 33 31 30 29 29 29 30 31 31 31 31 29 28 27 27 25 24 24 23 22 21 21 20 19 19 19 18 18 18 18 17 17 17 17 18 17 17 17 17 17 17 17 17 17 17 17 17
34 33 32 30 28 28 29 29 29 29 30 31 31 30 28 28 27 26 25 24 23 22 21 21 20 19 19 18 18 18 18 18 18 17 17 17 17 17 17 17 17 17 17 17 17 16 16 16 17
33 32 31 31 30 28 28 28 30 29 30 30 30 29 28 27 27 26 24 24 23 22 21 21 20 19 19 18 18 18 18 17 17 17 17 17 17 17 17 16 16 16 16 16 16 16 16 16 16
33 32 32 30 29 29 29 28 31 31 30 30 30 29 28 27 26 25 24 24 23 22 22 21 20 19 19 18 18 18 18 17 17 17 17 17 17 17 16 16 16 16 16 16 16 16 16 16 16
Wind_Speed
9 10 8 4 4 2 7 10 11 12 12 12 13 13 16 15 11 9 7 10 12 13 12 11 10 11 12 12 11 11 12 13 13 12 11 11 10 10 10 9 9 9 9 8 8 8 7 7 7
9 9 6 4 3 4 9 11 12 12 11 11 13 16 16 15 13 10 8 10 12 13 13 13 14 14 13 12 12 12 12 13 13 12 11 10 10 10 9 9 8 8 8 8 7 7 7 6 6
10 10 5 3 2 7 9 10 10 11 10 11 13 15 12 10 11 9 10 11 13 14 14 14 15 15 14 13 12 12 12 12 12 11 11 10 10 9 9 8 8 8 8 7 7 6 6 6 5
6 5 4 0 7 10 10 9 9 10 10 11 12 11 11 11 10 11 12 13 15 15 16 15 15 15 14 13 13 13 13 12 11 11 10 10 9 9 9 8 8 7 7 7 6 5 5 5 5
6 3 2 4 8 10 9 8 9 10 10 12 14 14 12 12 14 14 13 14 14 14 15 15 16 15 14 13 13 12 12 11 10 10 10 9 8 8 8 8 7 7 7 6 6 5 4 4 4
4 4 0 4 7 7 7 6 9 11 11 13 14 14 11 10 13 13 13 14 13 12 14 15 15 15 14 14 13 12 11 10 10 9 9 8 8 7 7 7 7 7 7 6 5 5 3 3 3
5 4 1 4 7 7 8 7 9 10 10 10 12 11 10 11 12 12 12 13 13 12 12 11 12 13 14 14 13 12 11 10 9 8 7 7 6 6 6 7 7 7 6 6 5 3 3 2 3
4 3 2 5 6 8 8 7 8 9 10 9 8 9 10 12 12 12 12 12 11 11 11 10 11 12 12 11 12 12 11 9 9 8 7 6 5 5 6 8 8 7 6 5 4 3 3 3 3
6 2 3 6 6 7 7 7 8 9 10 10 10 12 15 15 13 11 11 11 10 9 8 9 9 9 10 11 11 11 10 9 8 7 7 5 4 5 6 8 9 7 6 5 4 3 4 4 5
2 2 5 6 6 7 7 6 6 7 9 10 13 15 15 14 13 11 11 11 10 9 7 7 7 7 8 8 9 8 7 8 6 6 6 4 3 4 6 8 8 7 6 5 5 5 5 6 5
1 2 3 5 5 6 6 6 6 8 7 10 13 15 14 13 12 11 11 11 10 9 7 7 6 6 6 5 5 4 5 6 5 6 4 3 3 4 5 5 6 6 6 5 4 5 4 2 1
1 2 3 4 5 5 5 6 7 8 9 11 13 15 13 12 10 11 11 11 10 9 7 6 7 6 5 4 3 3 3 3 4 6 5 3 1 1 2 2 3 3 3 2 1 2 1 0 0
0 2 2 4 5 5 5 6 8 10 10 12 14 14 13 11 10 10 10 10 10 9 7 6 6 6 3 2 1 3 2 3 4 5 3 3 1 1 2 1 1 1 2 2 1 1 0 1 1
1 1 2 2 4 4 5 6 6 9 11 11 12 12 11 11 10 11 10 10 10 8 7 6 6 6 4 2 1 1 2 3 4 4 4 3 2 1 1 1 1 0 1 1 1 1 1 1 1
3 2 1 2 4 5 4 5 6 9 10 11 11 11 11 10 10 10 10 10 10 9 7 6 6 7 4 2 2 2 2 3 3 3 4 3 2 2 1 1 1 1 1 1 1 1 1 2 2
7 4 3 4 5 5 4 4 7 10 9 10 11 11 11 10 10 10 10 10 10 9 7 5 5 7 5 3 2 1 2 3 2 3 4 3 2 2 1 0 0 1 1 1 1 0 0 1 0
7 5 4 4 3 4 4 5 8 10 10 10 10 11 11 10 10 10 11 10 10 9 7 5 4 5 5 3 2 1 2 2 2 3 3 3 2 2 1 0 0 1 1 0 0 1 0 1 0
5 4 3 2 4 3 4 5 9 10 10 11 11 12 12 11 11 11 10 10 10 9 7 5 5 4 4 3 2 1 1 2 2 2 2 2 2 2 1 1 1 1 1 1 1 0 0 1 1
8 6 5 3 4 4 4 6 10 12 11 11 11 11 12 11 12 11 10 10 10 8 7 6 5 5 4 3 2 2 1 2 2 2 2 2 2 2 1 1 1 1 1 1 0 0 1 1 0
9 7 7 5 5 4 4 5 6 9 10 10 12 12 12 12 12 11 10 10 10 9 8 7 6 6 5 4 3 2 2 1 1 1 2 2 2 1 2 0 1 1 2 1 1 1 1 1 1
10 8 8 7 5 4 4 5 4 7 9 11 11 12 12 12 12 12 11 10 10 9 9 7 6 6 5 4 4 2 2 1 1 1 2 2 2 2 1 0 1 0 1 1 2 2 2 2 2
10 8 9 9 8 7 7 5 6 8 9 11 12 11 13 13 13 13 12 10 10 10 10 8 7 6 5 4 4 4 3 2 2 1 2 2 2 2 1 0 0 1 0 0 2 2 1 2 2
8 7 10 12 10 9 8 6 5 7 9 11 12 13 13 14 13 13 12 11 10 10 10 9 8 7 6 5 4 3 3 2 2 2 2 2 2 2 1 1 1 1 1 1 2 0 1 2 2
7 7 11 12 9 10 10 7 5 6 8 9 11 12 13 13 13 13 12 10 9 9 9 9 9 8 7 6 5 4 3 2 1 1 1 2 2 2 1 1 1 1 1 2 2 2 2 2 2
9 7 6 7 7 9 7 5 2 6 7 6 9 10 12 12 12 12 12 11 9 9 8 9 9 9 8 7 5 5 4 3 2 2 2 2 2 2 2 2 1 2 2 2 2 2 2 2 2
10 10 8 8 8 9 5 2 1 5 6 7 8 11 11 11 11 11 10 9 8 9 9 8 9 9 8 7 5 4 3 3 3 3 2 2 2 2 3 2 2 2 2 2 1 2 2 2 2
11 11 10 9 10 9 5 3 3 3 5 7 10 11 11 10 10 11 10 9 9 8 8 9 8 8 8 7 6 5 4 3 2 2 3 2 1 1 1 1 1 1 1 2 1 2 2 1 2
12 11 7 7 6 8 8 4 3 4 5 6 8 10 10 9 9 10 9 8 9 9 8 8 8 7 6 6 6 6 4 3 2 2 2 1 1 1 0 1 1 1 1 1 2 2 2 2 2
10 11 8 7 6 7 8 3 3 6 3 5 8 9 8 7 8 9 8 8 8 8 8 8 8 7 6 6 5 4 5 4 4 3 2 1 1 1 1 1 2 2 2 2 2 3 2 2 3
11 12 11 8 8 9 9 3 3 5 4 3 6 8 7 7 7 7 7 7 6 6 7 6 6 6 6 5 4 5 4 4 5 4 3 2 2 2 2 2 2 3 2 2 2 3 3 2 3
Wind_Direction
210 219 224 240 244 217 63 65 68 63 61 58 58 62 60 53 60 83 95 95 103 108 111 109 102 106 107 107 102 96 96 105 111 112 110 107 108 109 111 112 114 115 114 114 116 122 123 125 126
233 230 234 244 251 76 70 71 67 64 71 75 72 72 69 66 75 92 96 99 105 107 107 103 102 105 108 107 102 99 99 103 108 110 110 110 110 112 113 110 112 117 118 116 117 123 128 131 135
250 250 251 240 31 72 77 79 81 76 74 76 73 65 63 73 82 95 105 104 105 104 103 105 104 104 106 106 103 102 104 104 106 109 111 112 113 114 113 108 112 120 123 123 123 129 134 138 145
245 238 237 77 56 66 79 83 86 85 77 75 79 75 71 70 89 104 111 107 104 106 107 109 108 108 108 108 104 104 106 107 107 108 109 110 111 112 113 111 112 118 125 128 130 136 139 143 156
243 268 245 73 75 71 69 77 88 82 78 80 82 89 81 83 99 108 110 105 101 106 111 115 114 114 114 111 110 110 108 109 109 107 106 107 111 113 117 119 118 119 124 128 130 132 139 151 168
256 257 212 82 84 85 78 73 82 83 89 94 94 95 94 103 106 110 110 106 105 106 113 119 122 123 120 117 116 115 114 114 114 112 111 111 113 120 128 131 125 125 126 125 122 123 131 159 175
261 289 31 84 89 88 84 66 80 84 85 88 101 102 110 114 112 113 110 110 113 110 114 122 129 126 124 123 123 123 124 123 120 119 118 119 121 125 134 140 131 126 126 127 127 129 143 171 191
256 299 9 77 86 86 86 82 76 85 86 96 100 108 122 124 122 117 111 105 105 109 115 126 132 133 135 132 131 132 133 134 134 133 131 131 132 140 152 152 143 137 139 143 147 157 173 192 206
257 301 22 66 83 96 101 95 86 81 87 80 79 105 123 128 126 122 114 110 110 109 112 120 123 131 134 133 137 143 142 143 147 145 146 153 150 140 146 141 146 153 158 165 181 199 209 217 219
213 62 50 68 81 97 98 92 105 100 96 95 95 108 125 134 137 134 128 124 123 118 113 110 113 119 121 125 136 148 148 152 160 141 152 161 157 136 121 136 152 164 174 184 206 226 236 231 218
182 92 84 78 83 93 100 102 98 107 119 122 125 132 139 144 146 139 133 130 126 121 114 114 112 111 114 119 127 139 140 145 147 135 145 137 134 128 128 148 161 177 192 194 207 226 230 220 197
185 67 87 87 90 90 95 100 94 89 99 118 132 138 144 149 147 140 134 130 123 119 117 114 107 94 86 96 121 139 138 143 144 144 150 128 132 131 127 141 162 184 169 157 203 214 204 81 84
223 115 100 95 102 103 107 103 105 105 113 120 129 139 146 148 140 129 126 125 127 128 122 115 110 105 95 89 106 121 126 134 127 128 133 134 144 124 108 118 150 145 140 161 169 104 115 304 257
302 45 74 122 125 140 122 105 109 117 124 127 136 144 148 147 144 136 136 132 130 130 131 130 127 120 120 121 122 112 134 130 125 128 133 145 132 98 110 143 150 151 142 139 139 161 221 246 231
290 264 263 205 174 157 131 119 132 134 139 142 144 147 147 149 148 143 144 143 142 140 138 141 141 131 135 149 183 147 152 138 125 130 133 137 124 117 116 156 154 152 190 173 178 191 204 227 207
274 244 232 221 178 158 166 151 140 148 156 153 152 152 152 154 156 149 146 145 141 142 139 146 146 138 144 155 182 159 150 130 131 129 134 137 141 161 210 185 116 205 187 183 158 167 259 290 239
247 235 225 211 196 160 181 147 147 161 163 158 161 158 159 160 160 154 155 149 143 138 135 140 133 139 145 150 165 156 128 124 133 124 122 140 159 175 185 186 268 228 146 78 274 119 58 282 314
275 272 256 227 197 190 196 162 167 172 174 169 170 164 164 168 164 158 157 151 142 138 137 143 146 144 150 146 149 156 137 140 127 121 121 142 162 175 213 191 216 200 124 101 51 63 214 257 253
268 272 274 267 236 217 214 198 181 178 181 172 171 170 170 170 161 156 158 154 147 145 147 153 159 157 160 162 178 173 168 156 143 145 133 156 177 190 218 283 150 141 115 104 105 47 264 251 157
256 269 274 262 253 250 227 231 197 182 186 177 177 173 172 168 160 156 161 159 160 159 160 161 167 166 170 171 174 179 168 174 150 138 135 173 187 222 205 236 239 144 141 157 203 187 271 274 177
263 272 286 284 271 247 234 233 219 197 197 181 178 175 170 169 166 165 169 166 166 165 165 169 168 166 174 171 172 167 161 184 168 167 157 182 185 198 261 153 306 283 170 165 200 246 228 259 240
264 275 280 274 268 267 255 248 203 204 194 185 181 178 172 169 167 167 168 171 172 169 168 163 163 161 165 171 172 173 173 184 184 176 166 178 192 194 175 149 338 319 335 179 232 202 264 258 274
271 289 287 285 279 273 261 261 216 188 186 182 184 180 174 168 165 164 168 172 174 169 167 164 161 164 166 173 175 178 191 197 187 170 166 177 184 183 166 148 181 257 278 255 268 289 263 276 286
261 276 284 280 277 269 262 251 219 186 184 177 180 172 165 164 162 163 166 166 170 167 165 164 160 161 164 171 175 184 202 202 171 160 173 202 191 188 197 186 192 237 247 255 268 269 246 272 300
246 255 269 275 260 259 258 247 207 159 158 155 157 156 157 161 163 163 164 165 164 165 165 166 165 165 170 175 179 189 198 190 187 205 205 222 217 186 184 213 197 241 244 240 248 242 244 249 262
243 248 251 269 278 287 289 272 156 132 133 139 139 139 147 158 159 155 152 152 160 168 166 163 162 165 170 173 178 184 183 201 202 207 224 225 234 196 183 190 197 239 256 254 232 261 248 241 256
252 256 267 273 277 283 274 205 190 126 141 142 139 138 149 157 153 149 154 155 159 164 161 161 157 162 172 175 174 178 185 210 218 213 230 236 241 241 149 157 196 233 251 279 265 263 276 272 268
243 261 272 269 278 283 281 255 186 171 191 159 139 139 143 146 144 145 152 157 161 162 155 152 156 162 167 173 184 187 186 199 207 226 228 245 235 271 180 205 211 229 247 271 272 267 262 259 269
245 245 261 267 266 273 278 275 162 176 194 170 145 134 137 148 147 146 148 150 153 152 153 155 155 157 169 178 179 182 186 199 207 215 218 236 243 219 193 208 226 221 226 241 257 275 276 263 271
256 260 252 257 262 261 269 246 171 157 144 139 128 128 130 132 134 135 137 142 147 152 153 153 156 165 172 169 172 191 189 194 204 208 207 210 235 239 210 215 238 244 235 239 245 262 280 269 267
Height
1485 1485 1486 1488 1487 1484 1479 1471 1466 1466 1468 1470 1471 1472 1477 1481 1486 1498 1498 1497 1496 1496 1495 1494 1494 1495 1496 1498 1498 1498 1497 1497 1500 1504 1507 1510 1512 1513 1515 1517 1518 1520 1521 1523 1525 1526 1527 1528 1529
1485 1487 1489 1487 1485 1487 1482 1471 1471 1469 1471 1472 1474 1477 1481 1486 1491 1495 1497 1498 1498 1498 1497 1497 1496 1497 1498 1499 1501 1501 1501 1502 1504 1507 1509 1512 1513 1515 1516 1518 1519 1521 1522 1524 1525 1527 1528 1529 1530
1485 1487 1488 1483 1479 1482 1480 1471 1471 1471 1472 1474 1477 1481 1486 1491 1494 1497 1499 1499 1500 1499 1499 1499 1499 1500 1501 1502 1504 1505 1505 1506 1508 1510 1512 1513 1515 1516 1518 1519 1520 1522 1523 1525 1526 1527 1529 1530 1531
1486 1487 1485 1480 1480 1472 1470 1469 1470 1472 1473 1476 1479 1485 1492 1495 1497 1499 1500 1501 1501 1501 1501 1502 1502 1503 1504 1505 1507 1508 1509 1510 1511 1513 1514 1515 1517 1518 1519 1520 1521 1523 1524 1525 1527 1528 1529 1530 1531
1488 1485 1482 1482 1477 1472 1470 1470 1471 1472 1475 1478 1482 1489 1496 1498 1499 1500 1502 1503 1503 1504 1503 1504 1505 1506 1507 1508 1509 1510 1511 1512 1514 1515 1516 1517 1518 1519 1520 1521 1522 1524 1525 1526 1527 1528 1529 1531 1532
1487 1481 1484 1486 1478 1473 1471 1472 1472 1474 1477 1481 1486 1491 1498 1501 1501 1502 1504 1505 1506 1506 1506 1506 1507 1508 1509 1510 1511 1512 1513 1514 1515 1517 1518 1519 1520 1521 1522 1523 1523 1524 1526 1527 1528 1529 1530 1531 1532
1484 1479 1481 1479 1479 1476 1474 1474 1474 1476 1479 1482 1486 1492 1498 1501 1503 1504 1505 1507 1508 1509 1509 1509 1510 1510 1511 1512 1513 1514 1515 1516 1517 1518 1519 1520 1521 1522 1522 1523 1524 1525 1526 1527 1529 1530 1531 1531 1532
1481 1480 1479 1477 1479 1478 1475 1476 1477 1478 1481 1485 1486 1491 1498 1502 1504 1505 1507 1508 1510 1511 1511 1511 1512 1513 1513 1514 1515 1516 1517 1518 1519 1520 1521 1522 1522 1523 1523 1524 1525 1526 1527 1528 1529 1530 1531 1532 1533
1478 1481 1482 1477 1477 1476 1475 1476 1479 1481 1483 1486 1488 1492 1497 1502 1504 1506 1508 1510 1511 1513 1514 1514 1515 1515 1516 1517 1517 1518 1519 1520 1521 1522 1522 1523 1524 1524 1524 1525 1526 1527 1528 1529 1530 1530 1531 1532 1533
1476 1483 1479 1472 1472 1473 1475 1477 1479 1482 1486 1488 1492 1496 1499 1502 1505 1507 1509 1511 1513 1514 1515 1516 1517 1517 1518 1519 1519 1520 1521 1521 1522 1523 1524 1524 1525 1526 1526 1527 1527 1528 1529 1529 1530 1530 1531 1531 1532
1473 1476 1473 1471 1472 1473 1474 1477 1479 1481 1485 1488 1493 1497 1500 1503 1505 1507 1510 1512 1514 1515 1517 1517 1518 1519 1519 1520 1520 1521 1522 1523 1523 1524 1525 1525 1526 1527 1527 1527 1528 1529 1529 1529 1530 1530 1531 1532 1532
1472 1471 1471 1472 1472 1473 1475 1477 1480 1482 1486 1489 1493 1496 1500 1503 1505 1508 1510 1512 1514 1516 1517 1518 1519 1519 1520 1521 1522 1522 1523 1523 1524 1524 1525 1526 1527 1527 1528 1528 1529 1529 1529 1530 1530 1530 1531 1532 1532
1470 1471 1471 1471 1473 1474 1475 1477 1480 1484 1487 1490 1494 1497 1500 1503 1505 1508 1511 1513 1515 1516 1518 1518 1519 1519 1520 1521 1522 1523 1524 1524 1525 1525 1525 1526 1527 1528 1528 1529 1529 1530 1530 1530 1530 1530 1530 1531 1532
1471 1470 1471 1471 1472 1473 1474 1477 1480 1485 1488 1491 1494 1497 1500 1503 1506 1508 1511 1513 1515 1516 1518 1519 1519 1520 1520 1521 1522 1523 1524 1525 1525 1525 1526 1527 1528 1528 1528 1529 1529 1530 1530 1530 1530 1530 1530 1530 1531
1472 1472 1471 1470 1470 1471 1474 1479 1480 1484 1488 1491 1494 1497 1500 1503 1506 1508 1510 1513 1514 1516 1517 1518 1519 1520 1520 1522 1522 1524 1524 1525 1525 1526 1526 1527 1527 1528 1528 1529 1529 1530 1530 1530 1530 1530 1530 1530 1530
1473 1475 1480 1470 1466 1468 1476 1486 1478 1483 1486 1489 1493 1496 1500 1503 1505 1508 1510 1512 1514 1515 1517 1518 1520 1520 1520 1521 1522 1524 1524 1525 1525 1526 1526 1526 1527 1528 1528 1529 1529 1530 1530 1530 1530 1529 1529 1529 1530
1477 1481 1480 1472 1464 1465 1472 1479 1477 1480 1483 1487 1491 1495 1498 1502 1505 1507 1510 1512 1513 1514 1516 1517 1519 1519 1520 1521 1522 1523 1524 1524 1525 1526 1526 1526 1527 1527 1528 1528 1529 1529 1529 1529 1529 1529 1529 1529 1530
1483 1479 1476 1473 1464 1465 1470 1474 1474 1477 1479 1484 1488 1492 1496 1499 1503 1506 1508 1510 1512 1513 1515 1516 1517 1518 1519 1520 1521 1522 1523 1524 1525 1525 1525 1526 1526 1527 1527 1528 1528 1529 1529 1529 1529 1529 1529 1530 1530
1470 1473 1474 1468 1460 1463 1468 1469 1469 1472 1476 1480 1485 1489 1493 1497 1501 1504 1506 1509 1511 1512 1513 1515 1516 1517 1518 1519 1520 1521 1522 1523 1524 1524 1524 1525 1526 1526 1527 1527 1528 1528 1528 1528 1528 1529 1529 1530 1530
1467 1472 1471 1465 1458 1461 1466 1467 1465 1469 1472 1477 1481 1485 1490 1494 1499 1502 1505 1507 1509 1510 1512 1513 1514 1515 1516 1517 1519 1520 1521 1522 1523 1523 1523 1524 1525 1525 1526 1526 1527 1527 1528 1528 1528 1528 1529 1529 1530
1465 1468 1468 1466 1460 1459 1467 1473 1470 1468 1469 1473 1477 1482 1486 1491 1496 1499 1502 1505 1507 1508 1510 1511 1512 1513 1515 1516 1518 1519 1520 1521 1522 1522 1522 1523 1524 1524 1525 1525 1526 1526 1527 1527 1527 1527 1528 1528 1529
1469 1459 1460 1462 1468 1471 1467 1485 1476 1466 1467 1469 1474 1478 1482 1487 1492 1496 1500 1503 1505 1506 1508 1509 1510 1512 1513 1515 1516 1517 1518 1519 1520 1521 1521 1522 1522 1523 1524 1524 1525 1525 1526 1526 1526 1527 1527 1528 1528
1461 1456 1459 1460 1465 1469 1467 1479 1477 1465 1469 1468 1469 1474 1478 1483 1488 1493 1496 1500 1502 1504 1506 1507 1508 1510 1511 1513 1514 1516 1517 1518 1519 1520 1521 1521 1521 1522 1522 1523 1523 1524 1524 1525 1525 1526 1526 1526 1527
1454 1459 1461 1461 1467 1484 1471 1476 1480 1466 1464 1462 1465 1470 1475 1481 1485 1490 1494 1498 1501 1503 1504 1505 1506 1508 1510 1511 1513 1514 1516 1517 1518 1518 1519 1520 1520 1520 1521 1521 1522 1522 1523 1523 1524 1524 1524 1525 1525
1456 1470 1487 1491 1490 1485 1464 1470 1472 1458 1455 1458 1463 1468 1472 1478 1483 1487 1492 1495 1498 1500 1502 1503 1504 1506 1508 1510 1511 1513 1514 1515 1516 1517 1518 1519 1519 1519 1519 1520 1520 1521 1521 1521 1522 1522 1523 1523 1523
1456 1463 1486 1501 1500 1482 1469 1476 1464 1453 1456 1458 1462 1467 1473 1477 1481 1485 1489 1493 1496 1498 1500 1501 1502 1504 1506 1508 1510 1512 1513 1514 1515 1515 1516 1517 1518 1518 1518 1518 1518 1519 1519 1520 1520 1520 1521 1521 1522
1455 1457 1454 1471 1478 1485 1479 1471 1462 1454 1456 1459 1462 1467 1472 1476 1480 1484 1488 1491 1494 1496 1498 1500 1501 1503 1505 1507 1508 1510 1511 1512 1513 1514 1515 1515 1516 1516 1516 1516 1516 1517 1517 1518 1518 1518 1519 1519 1520
1446 1449 1457 1470 1490 1496 1486 1477 1474 1466 1461 1459 1461 1466 1471 1475 1478 1482 1486 1488 1491 1494 1496 1499 1501 1502 1504 1505 1507 1508 1509 1510 1511 1512 1513 1513 1514 1514 1514 1514 1514 1515 1515 1516 1516 1516 1517 1517 1517
1449 1451 1456 1462 1470 1488 1494 1483 1459 1461 1460 1459 1461 1465 1470 1474 1477 1481 1484 1487 1490 1492 1495 1497 1499 1500 1502 1504 1505 1506 1507 1508 1509 1509 1510 1511 1512 1512 1512 1512 1512 1513 1513 1513 1514 1514 1514 1514 1514
1443 1447 1451 1468 1473 1470 1478 1478 1452 1453 1456 1459 1461 1466 1470 1474 1477 1480 1483 1486 1489 1491 1493 1495 1497 1499 1500 1501 1502 1504 1505 1506 1506 1507 1508 1508 1509 1509 1510 1510 1510 1510 1511 1511 1511 1511 1512 1512 1512